Location: Arrodets-la-Barthe
(43.0306°N, 0.2829°E)
Time: 00:22:44
(UTC+00:00)

DUCHIFAT 1 - Pass Details

Date: 11 April 2023
Orbit: 567 x 581 km, 98.1° (Epoch: 29 May)

Event Time Altitude Azimuth Distance (km) Brightness Sun altitude
Rises 02:09:00 0° 32° (NNE) 2,778 ? -31.0°
Reaches altitude 10° 02:12:02 10° 57° (ENE) 1,872 ? -30.7°
Maximum altitude 02:14:18 15° 92° (E) 1,595 ? -30.4°
Enters shadow 02:14:42 14° 98° (E) 1,603 ? -30.3°
